EW6791 Weather Reports


time (UTC)temp
C
wind
direction
speed
KPH
gust
KPH
rain 1hr
cm
rain 24hr
cm
rain mn
cm
humidity
%
barometer
mb
20260509101518 7 120 0.0 0.0 0.00 0.00 0.00 52 1001.5
20260509100015 7 120 0.0 0.0 0.00 0.00 0.00 53 1001.8
20260509094517 7 120 0.0 0.0 0.00 0.00 0.00 54 1002.0
20260509093013 7 120 0.0 1.6 0.00 0.00 0.00 55 1002.1
20260509091511 7 179 0.0 1.6 0.00 0.00 0.00 56 1002.3
20260509090031 7 191 0.0 1.6 0.00 0.00 0.00 58 1002.3
20260509084510 7 190 0.0 1.6 0.00 0.00 0.00 60 1002.4
20260509083018 7 158 0.0 4.8 0.00 0.00 0.00 62 1002.4
20260509081507 7 128 0.0 1.6 0.00 0.00 0.00 66 1002.5
20260509080010 7 109 0.0 1.6 0.00 0.00 0.00 68 1002.6
20260509074511 7 108 0.0 0.0 0.00 0.00 0.00 67 1002.6
20260509073006 7 108 0.0 0.0 0.00 0.00 0.00 67 1002.7
20260509071502 7 108 0.0 0.0 0.00 0.00 0.00 67 1002.8
20260509070001 7 60 0.0 0.0 0.00 0.00 0.00 67 1002.9
20260509064559 7 20 0.0 0.0 0.00 0.00 0.00 65 1003.2
20260509063120 7 53 0.0 0.0 0.00 0.00 0.00 63 1003.3
20260509061559 7 53 0.0 0.0 0.00 0.00 0.00 61 1003.5
20260509060056 8 88 0.0 0.0 0.00 0.00 0.00 60 1003.7
20260509054554 8 44 0.0 0.0 0.00 0.00 0.00 60 1003.9
20260509053050 8 102 0.0 0.0 0.00 0.00 0.00 58 1004.0
20260509051552 8 125 0.0 0.0 0.00 0.00 0.00 56 1004.0
20260509050057 7 147 0.0 0.0 0.00 0.00 0.00 56 1004.1
20260509044543 7 147 0.0 0.0 0.00 0.00 0.00 55 1004.3
20260509043046 7 147 0.0 0.0 0.00 0.00 0.00 53 1004.3
20260509041540 6 147 0.0 0.0 0.00 0.00 0.00 52 1004.4
20260509040039 7 147 0.0 0.0 0.00 0.00 0.00 53 1004.5
20260509034536 7 147 0.0 0.0 0.00 0.00 0.00 51 1004.6
20260509033041 7 154 0.0 0.0 0.00 0.00 0.00 51 1004.7
20260509031535 7 185 0.0 0.0 0.00 0.00 0.00 50 1004.7
20260509030035 8 185 0.0 0.0 0.00 0.00 0.00 48 1004.9
20260509024539 8 185 0.0 0.0 0.00 0.00 0.00 46 1004.9
20260509023035 9 185 0.0 0.0 0.00 0.00 0.00 44 1004.9
20260509021533 10 184 0.0 0.0 0.00 0.00 0.00 41 1005.0
20260509020033 10 184 0.0 0.0 0.00 0.00 0.00 39 1005.0
20260509014532 10 184 0.0 0.0 0.00 0.00 0.00 38 1004.9
20260509013030 11 184 0.0 0.0 0.00 0.00 0.00 36 1004.8
20260509011530 12 184 0.0 0.0 0.00 0.00 0.00 35 1004.7
20260509010034 12 197 0.0 0.0 0.00 0.00 0.00 34 1004.6
20260509004529 13 197 0.0 0.0 0.00 0.00 0.00 29 1004.6
20260509003029 13 197 0.0 1.6 0.00 0.00 0.00 28 1004.5
20260509001528 14 190 0.0 0.0 0.00 0.00 0.00 26 1004.4
20260509000038 15 167 0.0 3.2 0.00 0.00 0.00 25 1004.5
20260508234526 15 134 0.0 1.6 0.00 0.00 0.00 23 1004.6
20260508233026 16 132 0.0 3.2 0.00 0.00 0.00 21 1004.6
20260508231525 16 185 0.0 6.4 0.00 0.00 0.00 22 1004.6
20260508230023 16 184 0.0 3.2 0.00 0.00 0.00 21 1004.7
20260508224543 16 148 0.0 11.3 0.00 0.00 0.00 20 1004.7
20260508223021 17 203 1.6 16.1 0.00 0.00 0.00 19 1004.7
20260508221525 17 184 3.2 14.5 0.00 0.00 0.00 17 1004.9
20260508220029 17 191 1.6 8.0 0.00 0.00 0.00 18 1004.9
20260508214527 17 37 1.6 11.3 0.00 0.00 0.00 18 1004.9
20260508213028 17 145 3.2 11.3 0.00 0.00 0.00 17 1005.0
20260508211522 17 206 3.2 11.3 0.00 0.00 0.00 17 1005.1
20260508210017 17 182 1.6 9.7 0.00 0.00 0.00 19 1005.3
20260508204512 17 199 3.2 11.3 0.00 0.00 0.00 18 1005.5
20260508203011 17 187 4.8 11.3 0.00 0.00 0.00 20 1005.6
20260508201508 17 183 1.6 8.0 0.00 0.00 0.00 24 1005.8
20260508200013 16 132 0.0 11.3 0.00 0.00 0.00 20 1006.1
20260508194603 16 162 3.2 14.5 0.00 0.00 0.00 20 1006.4
20260508193104 16 172 1.6 9.7 0.00 0.00 0.00 22 1006.7
20260508191554 16 202 1.6 9.7 0.00 0.00 0.00 22 1007.0
20260508190052 15 179 1.6 14.5 0.00 0.00 0.00 21 1007.1
20260508184550 16 176 1.6 8.0 0.00 0.00 0.00 23 1007.3
20260508183100 15 143 0.0 14.5 0.00 0.00 0.00 23 1007.5
20260508181554 15 322 1.6 12.9 0.00 0.00 0.00 22 1007.7
20260508180040 15 266 1.6 14.5 0.00 0.00 0.00 25 1008.0
20260508174539 14 243 4.8 12.9 0.00 0.00 0.00 27 1008.1
20260508173037 14 150 3.2 11.3 0.00 0.00 0.00 27 1008.4
20260508171536 13 197 3.2 9.7 0.00 0.00 0.00 32 1008.6
20260508170030 13 293 0.0 8.0 0.00 0.00 0.00 37 1008.8
20260508164526 13 273 0.0 12.9 0.00 0.00 0.00 37 1008.9
20260508163026 12 255 3.2 11.3 0.00 0.00 0.00 34 1009.1
20260508161531 12 283 3.2 14.5 0.00 0.00 0.00 33 1009.2
20260508160020 12 264 3.2 14.5 0.00 0.00 0.00 33 1009.3
20260508154516 11 270 3.2 12.9 0.00 0.00 0.00 41 1009.3
20260508153014 11 95 1.6 9.7 0.00 0.00 0.00 42 1009.6
20260508151516 11 259 0.0 6.4 0.00 0.00 0.00 42 1009.7
20260508150019 11 302 0.0 9.7 0.00 0.00 0.00 42 1009.7
20260508144526 11 259 0.0 8.0 0.00 0.00 0.00 41 1009.8
20260508143024 11 174 0.0 9.7 0.00 0.00 0.00 43 1009.9
20260508141519 11 217 1.6 8.0 0.00 0.00 0.00 40 1010.0
20260508140008 11 181 0.0 8.0 0.00 0.00 0.00 39 1009.9
20260508134507 10 198 1.6 8.0 0.00 0.00 0.00 39 1009.8
20260508133006 10 249 0.0 3.2 0.00 0.00 0.00 40 1009.9
20260508131504 10 85 0.0 3.2 0.00 0.00 0.00 43 1009.9
20260508130002 10 150 0.0 3.2 0.00 0.00 0.00 44 1010.1
20260508124500 10 188 0.0 0.0 0.00 0.00 0.00 45 1010.1
20260508123057 8 174 0.0 0.0 0.00 0.00 0.00 48 1010.2
20260508121554 8 155 0.0 0.0 0.00 0.00 0.00 48 1009.9
20260508120050 7 155 0.0 0.0 0.00 0.00 0.00 49 1009.7
20260508114548 7 155 0.0 0.0 0.00 0.00 0.00 50 1009.7
20260508113109 6 155 0.0 0.0 0.00 0.00 0.00 50 1009.7
20260508111542 6 155 0.0 0.0 0.00 0.00 0.00 50 1009.7
20260508110038 5 155 0.0 0.0 0.00 0.00 0.00 51 1009.6
20260508104550 2 156 0.0 3.2 0.00 0.00 0.00 57 1009.7
20260508103034 1 155 0.0 1.6 0.00 0.00 0.00 63 1009.5